User: anonymous   Login
Location: Eaton Estates
(41.3089°N, 82.0057°W)
Time: 15:42:10
(UTC+00:00)
Language:

Cosmos 2123 Rocket - Orbit

View from above orbital plane
View from above orbital plane
View from above satellite
View from above satellite

Ground track
Ground track

The orbit data is extracted from the following two-line orbital elements,

1 21090U 91007B   21262.83130759  .00000049  00000-0  34674-4 0  9999
2 21090  82.9237 160.0891 0021081   9.7979 350.3585 13.76403111537712
Epoch (UTC): 19 September 2021 19:57:04
Eccentricity: 0.0021081
inclination: 82.9237°
perigee height: 961 km
apogee height: 992 km
right ascension of ascending node: 160.0891°
argument of perigee: 9.7979°
revolutions per day: 13.76403111
mean anomaly at epoch: 350.3585°
orbit number at epoch: 53771

The dashed part of the orbit path shows where the satellite is in the earth's shadow,  

DLR